User: anonymous   Login
Location: *
(40.4270°N, 9.4940°E)
Time: 07:21:02
(UTC+01:00)
Language:

ATLAS 5 CENTAUR R/B - Orbit

View from above orbital plane
View from above orbital plane
View from above satellite
View from above satellite

Ground track
Ground track

The orbit data is extracted from the following two-line orbital elements,

1 31702U 07027B   14329.13386765 0.00000600  00000-0  25238-3 0    09
2 31702  63.3770  65.2072 0169000 352.1648   7.8352 14.18228543    01
Epoch (UTC): 25 November 2014 03:12:46
Eccentricity: 0.0169000
inclination: 63.3770°
perigee height: 709 km
apogee height: 953 km
right ascension of ascending node: 65.2072°
argument of perigee: 352.1648°
revolutions per day: 14.18228543
mean anomaly at epoch: 7.8352°
orbit number at epoch: 0

The dashed part of the orbit path shows where the satellite is in the earth's shadow,  

DLR